Vorticity
6 5 5 6 6 6 6 6 8 8 7 7 9 8 6 5 4 3 5 5 4 10 28 -8 9 7 7 10 13 8 15 12 19 17 12 10 10 9 6 -6 -5 3 13 11 45 4 27 -21 -22 13 -19 1 14 8
6 6 6 7 7 7 8 8 7 9 9 9 10 8 7 7 6 1 3 5 3 5 3 10 15 30 18 13 -9 1 -6 -3 -6 -0 -11 4 -15 -14 -7 4 6 17 11 -20 -10 -43 -25 24 15 15 17 23 20 12
8 10 10 8 8 8 8 9 9 9 13 10 8 8 9 6 5 4 4 5 3 7 16 10 2 -10 18 8 2 12 -4 -6 14 20 9 11 12 6 -0 1 14 9 16 -7 -6 16 -0 27 8 10 -10 7 14 17
10 10 10 8 6 8 8 8 9 11 10 10 11 8 7 6 5 4 3 4 8 8 19 38 33 28 -3 -13 7 5 -2 25 20 3 -6 5 8 16 2 -4 -1 6 2 19 15 11 10 2 -16 14 2 4 10 10
7 11 11 14 13 8 8 7 5 12 -8 7 8 12 11 8 7 7 10 10 9 13 1 17 28 7 3 12 10 19 18 -10 6 10 12 19 5 10 13 14 10 24 -11 16 3 24 17 -0 12 22 13 15 11 13
6 15 11 10 10 8 5 -0 9 5 14 17 15 8 8 11 10 8 7 12 23 7 6 10 5 -3 12 6 -6 6 20 35 32 30 9 -1 5 9 17 -11 -3 10 17 18 12 8 9 14 13 7 5 7 9 8
17 4 -5 4 -8 -0 7 4 13 10 15 3 9 9 7 8 8 9 10 6 13 10 8 26 31 28 20 12 16 20 15 -1 -8 4 8 12 12 11 7 -1 45 31 15 8 18 15 19 20 19 12 13 16 14 12
4 10 6 6 6 6 5 -0 14 3 3 13 12 13 12 13 13 14 13 10 8 9 16 20 -2 10 9 7 4 1 5 12 14 10 9 9 15 10 12 55 9 16 21 19 11 8 7 4 6 12 13 21 26 24
12 11 1 11 1 -1 17 19 15 3 11 13 17 18 16 16 15 11 9 11 9 8 3 -6 -5 12 21 13 7 9 5 6 20 22 30 35 18 -1 12 -10 24 3 11 18 11 9 6 5 8 4 20 34 32 24
21 24 21 18 13 9 10 12 15 19 20 19 17 12 8 5 13 17 16 11 19 13 14 2 29 10 13 2 9 22 33 22 12 21 23 25 7 12 23 21 9 9 5 8 16 13 1 5 5 -5 -4 -3 -3 -2
25 22 24 26 27 32 29 21 17 12 10 8 7 5 9 8 10 14 41 18 14 11 21 27 36 44 39 27 28 25 8 10 17 13 11 12 -3 10 17 17 8 1 1 -5 -5 -7 -4 3 13 15 7 9 16 15
8 11 10 9 9 10 10 10 10 9 10 11 9 12 12 15 34 28 20 20 10 15 10 18 15 8 16 14 7 9 14 19 7 18 15 14 2 6 16 19 7 -1 -5 -9 -10 -5 1 -14 -9 -7 7 8 7 7
6 5 6 5 4 5 8 9 11 10 10 11 12 18 34 15 8 -0 16 4 9 9 15 9 3 9 2 5 15 16 14 10 19 20 -0 -2 20 9 31 14 14 -13 -9 2 -4 -22 -3 10 12 14 4 12 15 12
10 12 14 14 13 14 14 13 12 14 12 14 14 17 2 7 15 21 15 8 5 4 8 12 4 1 1 16 7 -3 19 10 15 -1 -36 23 8 17 31 33 10 18 10 4 -6 -7 -10 6 9 5 13 14 18 15
11 12 9 10 8 13 19 17 21 16 12 7 11 14 25 7 -8 -26 -8 16 7 9 11 9 14 8 2 5 10 10 12 14 11 -4 -0 8 8 18 22 -4 -12 -11 -10 -2 -5 13 18 21 12 15 10 17 20 17
10 10 6 10 9 8 5 9 10 12 10 4 -6 -20 -14 -1 12 20 10 13 20 16 12 12 8 10 9 4 6 -16 -24 -32 -23 -5 -1 -4 -8 -11 -12 -6 -4 -5 -5 2 14 2 2 1 16 19 17 15 13 4
9 10 14 14 17 13 8 7 16 9 21 -8 4 9 6 -0 -16 -26 -26 -28 -29 -18 -5 15 7 17 -7 31 28 11 3 12 21 7 -5 -10 8 19 17 8 11 22 19 4 10 19 23 21 23 17 16 14 11 -0
11 17 16 14 14 13 11 5 11 13 -8 -5 -4 3 7 10 13 14 16 18 11 17 22 7 -3 -9 -22 -17 -17 -19 -9 -6 9 30 17 11 10 13 19 20 23 23 20 16 17 19 18 18 23 19 12 18 13 5
15 14 12 13 12 14 11 9 -2 -5 12 12 6 6 11 6 3 5 5 2 -0 2 8 2 19 24 11 11 10 14 13 8 7 12 13 8 3 5 7 9 10 9 10 11 11 12 11 17 18 16 14 15 15 13
13 14 14 14 11 9 8 36 21 7 -5 8 21 16 14 16 25 30 27 20 16 11 14 1 10 9 12 9 10 7 11 12 18 8 7 14 17 16 12 8 7 8 12 19 10 13 14 14 17 19 15 18 12 12
12 11 13 12 11 10 13 -9 -14 -22 21 29 38 39 36 42 29 31 28 22 7 11 11 12 9 11 10 8 5 10 12 8 7 20 11 7 6 8 12 18 28 28 22 21 18 21 20 25 27 17 15 2 9 15
13 12 11 11 12 10 8 -0 -8 6 19 6 -5 -31 -24 -5 2 -3 11 21 28 16 12 11 3 6 9 14 13 4 8 13 22 15 7 22 17 18 17 30 28 17 15 15 14 12 23 25 22 13 9 10 2 3
11 13 11 10 10 15 11 12 9 10 9 3 -1 -5 -4 -1 12 4 -13 -8 6 8 14 7 34 27 30 10 21 7 10 13 12 25 25 17 -0 7 4 11 -0 17 36 35 34 25 20 24 9 16 9 15 9 12
12 11 8 5 10 16 14 6 9 12 9 11 12 10 7 14 28 32 23 23 20 3 -6 6 16 9 20 7 12 9 13 17 17 -2 17 17 -0 9 1 10 10 42 21 13 30 27 15 20 8 6 9 -1 8 15
13 19 32 10 23 4 3 1 3 13 -7 8 20 1 3 16 -13 -2 5 16 19 20 28 -9 11 14 14 17 11 16 17 10 5 10 4 9 14 16 8 11 25 26 13 9 4 10 24 13 8 2 2 1 6 26
23 16 -10 -26 -26 -0 -3 9 10 13 24 17 6 11 18 26 40 -3 -4 20 15 -7 22 15 20 21 21 21 9 9 8 11 7 5 5 22 16 10 12 7 6 29 3 6 12 3 6 12 12 9 7 4 11 17
10 -19 -34 -3 12 27 21 24 31 16 10 -1 3 31 39 33 11 -20 13 17 27 19 32 18 4 3 2 4 9 10 9 13 12 10 5 11 13 13 6 3 8 14 -1 6 8 9 9 8 9 7 8 4 18 14
8 9 2 25 5 -16 12 38 31 6 -11 7 27 17 16 -16 -47 11 34 20 10 19 13 6 -1 1 10 9 9 7 10 12 6 10 18 11 19 15 6 9 16 13 8 7 9 9 11 10 5 10 11 8 14 13
5 8 15 9 20 25 27 22 3 -7 7 22 30 15 7 10 9 12 9 9 17 11 7 10 7 7 13 15 2 5 14 24 10 13 17 9 20 14 9 19 15 15 13 9 14 10 11 11 3 14 15 8 17 16
14 27 -0 5 15 13 28 34 18 23 6 12 20 8 9 16 16 8 3 15 16 11 15 16 11 23 24 11 5 17 11 41 17 20 3 29 6 2 16 24 22 20 18 18 9 14 14 9 16 21 22 8 24 11
4 6 3 9 2 11 16 12 11 18 18 21 23 21 22 16 15 12 11 6 3 2 -0 3 4 9 13 7 6 15 36 32 25 8 18 19 7 9 9 12 17 19 20 14 18 15 15 19 20 20 7 19 18 14
7 3 7 8 12 6 12 12 6 7 12 13 15 26 29 28 27 29 35 41 39 37 35 31 36 34 31 39 24 20 24 25 13 14 20 11 6 7 6 8 12 19 15 12 12 12 14 14 13 12 13 22 11 20
15 22 20 17 12 12 6 20 14 3 1 12 7 -2 7 15 19 -2 4 35 39 22 13 15 14 24 17 8 19 25 23 23 15 25 13 10 7 2 5 15 11 18 10 10 14 14 16 13 15 8 22 13 20 8
Height
3110 3113 3115 3117 3118 3119 3120 3121 3123 3123 3121 3120 3120 3119 3118 3117 3115 3113 3110 3108 3106 3104 3103 3101 3100 3098 3097 3097 3096 3096 3096 3093 3092 3092 3092 3092 3090 3090 3089 3088 3087 3088 3086 3083 3084 3085 3070 3066 3066 3067 3062 3056 3051 3047
3103 3105 3107 3109 3111 3113 3114 3115 3115 3116 3115 3114 3114 3114 3113 3111 3110 3109 3108 3105 3102 3101 3100 3097 3095 3094 3093 3092 3094 3092 3092 3091 3090 3089 3089 3088 3087 3085 3082 3081 3081 3080 3078 3076 3075 3069 3067 3064 3060 3057 3051 3045 3041 3037
3094 3097 3099 3101 3103 3104 3106 3108 3109 3109 3110 3109 3107 3107 3106 3105 3105 3104 3103 3101 3098 3096 3095 3091 3089 3089 3089 3088 3087 3087 3087 3086 3084 3084 3084 3082 3080 3079 3076 3074 3072 3072 3073 3068 3066 3061 3059 3056 3053 3048 3044 3038 3034 3030
3085 3088 3091 3093 3095 3096 3098 3099 3101 3102 3102 3102 3102 3101 3099 3099 3099 3098 3097 3095 3092 3090 3086 3086 3082 3083 3082 3082 3082 3080 3080 3078 3078 3078 3077 3074 3073 3071 3068 3068 3064 3065 3064 3060 3055 3052 3048 3048 3043 3039 3034 3030 3025 3021
3075 3079 3082 3084 3086 3089 3091 3092 3093 3094 3095 3095 3094 3094 3093 3093 3091 3090 3089 3088 3086 3087 3082 3081 3080 3079 3077 3075 3073 3072 3071 3071 3070 3069 3068 3067 3065 3064 3061 3058 3055 3056 3053 3050 3044 3045 3037 3032 3033 3031 3022 3021 3018 3012
3068 3071 3074 3076 3079 3082 3083 3084 3085 3085 3086 3086 3086 3086 3085 3085 3084 3084 3081 3080 3078 3076 3074 3073 3072 3071 3068 3065 3065 3065 3064 3063 3062 3061 3062 3060 3060 3060 3052 3045 3050 3050 3046 3041 3034 3033 3028 3026 3021 3019 3013 3013 3009 3005
3060 3063 3065 3069 3072 3073 3075 3077 3076 3076 3077 3078 3078 3078 3078 3077 3077 3078 3077 3075 3071 3069 3067 3065 3065 3062 3060 3059 3059 3058 3058 3059 3057 3056 3053 3054 3054 3053 3042 3037 3044 3041 3037 3036 3033 3025 3024 3020 3012 3011 3008 3004 3000 2996
3049 3052 3056 3059 3061 3064 3066 3067 3068 3069 3069 3069 3069 3069 3069 3069 3069 3069 3068 3067 3066 3065 3063 3063 3061 3059 3057 3054 3054 3052 3051 3050 3047 3046 3044 3046 3045 3043 3034 3037 3036 3031 3031 3030 3028 3023 3017 3012 3009 3004 2999 2995 2993 2987
3039 3043 3046 3049 3052 3054 3057 3058 3060 3060 3060 3061 3062 3061 3060 3062 3062 3061 3060 3059 3058 3062 3055 3051 3055 3053 3050 3049 3048 3046 3043 3042 3037 3034 3036 3036 3034 3033 3033 3032 3029 3026 3024 3024 3021 3017 3015 3010 3005 2999 2993 2989 2986 2982
3029 3032 3035 3038 3041 3044 3046 3049 3050 3051 3052 3054 3054 3054 3052 3055 3056 3055 3050 3049 3048 3047 3046 3039 3045 3046 3047 3045 3044 3045 3040 3038 3032 3028 3027 3024 3023 3026 3025 3025 3023 3021 3018 3015 3011 3011 3008 3005 3001 2997 2992 2988 2984 2979
3019 3023 3026 3028 3032 3034 3036 3039 3041 3044 3046 3046 3047 3048 3047 3047 3049 3047 3044 3041 3039 3037 3035 3035 3036 3037 3037 3039 3040 3043 3040 3036 3030 3026 3026 3018 3021 3022 3017 3016 3016 3015 3012 3011 3008 3004 3000 2996 2992 2990 2987 2984 2980 2976
3014 3016 3020 3024 3027 3028 3032 3033 3035 3036 3040 3041 3042 3042 3042 3041 3040 3042 3035 3033 3032 3032 3031 3032 3033 3033 3036 3036 3036 3037 3037 3036 3027 3021 3019 3013 3022 3015 3014 3012 3012 3010 3007 3005 3002 2997 2994 2991 2988 2982 2979 2976 2972 2968
3008 3012 3016 3018 3021 3023 3026 3026 3027 3030 3033 3034 3036 3036 3037 3034 3027 3027 3026 3027 3027 3028 3028 3030 3031 3032 3032 3034 3032 3033 3028 3026 3022 3018 3011 3010 3012 3012 3009 3009 3006 3002 2998 2996 2993 2990 2986 2981 2978 2974 2969 2965 2959 2955
3002 3004 3008 3011 3013 3017 3020 3021 3022 3024 3027 3027 3028 3027 3030 3023 3017 3017 3020 3023 3024 3026 3026 3027 3028 3031 3029 3030 3028 3027 3023 3021 3013 3007 3004 3005 3004 3003 3001 2998 2994 2992 2990 2986 2982 2978 2972 2968 2962 2960 2957 2952 2946 2942
2994 2999 3002 3003 3006 3010 3014 3015 3015 3017 3019 3021 3020 3015 3013 3015 3015 3017 3017 3019 3021 3021 3023 3023 3023 3026 3024 3024 3022 3019 3016 3007 3001 3001 3002 3000 2997 2995 2992 2988 2985 2981 2977 2973 2971 2965 2960 2954 2950 2946 2944 2939 2936 2930
2989 2992 2993 2997 3000 3006 3008 3007 3008 3010 3009 3012 3006 3002 3004 3009 3010 3013 3016 3015 3015 3016 3018 3018 3018 3019 3016 3014 3008 3004 3001 2993 2997 2996 2994 2992 2990 2987 2984 2978 2974 2971 2967 2963 2958 2953 2946 2943 2938 2932 2929 2927 2923 2918
2981 2979 2989 2992 2995 2997 2999 3000 3001 3000 2999 2996 2990 2993 2997 3001 3006 3009 3010 3012 3012 3012 3012 3011 3009 3008 3004 2999 2995 2993 2989 2991 2991 2986 2983 2983 2979 2975 2971 2967 2962 2957 2952 2947 2942 2937 2931 2927 2922 2918 2915 2913 2908 2904
2970 2978 2981 2984 2986 2988 2989 2991 2990 2987 2984 2984 2983 2987 2989 2994 2998 3000 3001 3002 3003 3003 3002 3001 3000 2995 2993 2987 2984 2984 2983 2982 2981 2975 2971 2968 2965 2962 2958 2950 2945 2941 2934 2930 2925 2919 2915 2911 2907 2905 2902 2897 2892 2889
2966 2970 2972 2976 2978 2979 2980 2979 2979 2975 2974 2975 2978 2980 2981 2982 2985 2990 2992 2993 2991 2989 2989 2989 2985 2979 2977 2978 2977 2976 2974 2971 2966 2962 2958 2955 2953 2948 2942 2937 2931 2924 2920 2915 2910 2906 2902 2898 2895 2893 2889 2884 2879 2876
2958 2960 2963 2967 2969 2968 2969 2968 2969 2967 2964 2966 2969 2972 2970 2971 2976 2975 2979 2980 2980 2977 2973 2967 2965 2968 2970 2969 2968 2964 2962 2960 2955 2948 2944 2941 2937 2932 2925 2919 2914 2910 2904 2899 2896 2893 2887 2884 2884 2880 2876 2873 2868 2864
2949 2952 2956 2957 2958 2959 2959 2957 2958 2957 2957 2958 2961 2962 2960 2961 2962 2964 2966 2967 2964 2959 2955 2952 2955 2959 2960 2958 2956 2954 2951 2949 2943 2937 2930 2924 2922 2917 2911 2907 2902 2896 2889 2885 2881 2877 2876 2873 2870 2868 2866 2862 2858 2854
2942 2945 2947 2949 2950 2949 2948 2948 2950 2950 2951 2951 2953 2952 2948 2949 2951 2951 2953 2949 2943 2942 2942 2945 2946 2946 2944 2943 2943 2942 2939 2934 2929 2924 2920 2915 2909 2906 2900 2895 2889 2883 2878 2873 2870 2867 2864 2862 2860 2858 2855 2852 2849 2845
2935 2938 2939 2941 2941 2939 2938 2942 2942 2942 2942 2940 2942 2940 2938 2938 2938 2939 2935 2931 2928 2931 2933 2934 2932 2932 2929 2929 2929 2928 2925 2919 2915 2911 2906 2904 2900 2895 2890 2885 2880 2873 2865 2861 2859 2856 2853 2853 2851 2849 2847 2844 2840 2835
2928 2929 2930 2930 2929 2927 2929 2930 2930 2929 2929 2927 2927 2926 2925 2924 2925 2922 2916 2917 2918 2920 2920 2920 2919 2916 2916 2915 2915 2913 2911 2908 2902 2899 2896 2894 2888 2886 2883 2876 2871 2865 2859 2853 2851 2849 2847 2845 2843 2842 2839 2835 2831 2826
2921 2920 2920 2916 2917 2919 2918 2917 2916 2917 2915 2916 2916 2914 2913 2913 2910 2908 2904 2903 2903 2905 2905 2906 2905 2903 2902 2902 2900 2898 2898 2895 2890 2885 2885 2883 2878 2874 2869 2866 2861 2857 2853 2848 2845 2842 2840 2838 2837 2835 2832 2828 2822 2817
2909 2909 2909 2908 2909 2909 2907 2906 2905 2903 2905 2906 2903 2901 2900 2899 2898 2894 2890 2886 2889 2892 2891 2890 2890 2889 2889 2888 2887 2885 2884 2883 2878 2873 2871 2873 2868 2864 2858 2855 2852 2849 2848 2842 2838 2835 2833 2832 2830 2827 2824 2820 2815 2808
2898 2899 2898 2900 2900 2899 2898 2895 2896 2897 2894 2892 2890 2889 2889 2884 2880 2877 2877 2879 2879 2881 2879 2878 2878 2877 2876 2874 2873 2872 2871 2869 2865 2862 2860 2858 2856 2854 2851 2846 2842 2841 2839 2836 2832 2828 2825 2823 2821 2819 2815 2812 2808 2802
2889 2890 2890 2892 2889 2890 2888 2888 2887 2885 2883 2882 2879 2876 2874 2870 2867 2869 2868 2871 2871 2869 2867 2867 2866 2864 2862 2859 2858 2856 2854 2854 2851 2848 2846 2845 2844 2843 2841 2839 2835 2832 2829 2826 2824 2821 2818 2816 2814 2811 2807 2804 2801 2795
2879 2879 2881 2880 2880 2879 2875 2875 2873 2871 2871 2868 2864 2862 2857 2857 2858 2858 2858 2858 2857 2854 2851 2850 2848 2848 2846 2844 2842 2840 2838 2837 2835 2834 2833 2831 2830 2830 2831 2828 2824 2822 2819 2816 2815 2812 2810 2808 2806 2803 2799 2796 2793 2789
2869 2871 2871 2870 2868 2864 2863 2863 2860 2860 2859 2856 2853 2849 2847 2844 2842 2843 2842 2840 2837 2835 2834 2834 2832 2830 2827 2826 2824 2823 2822 2819 2818 2820 2820 2819 2818 2818 2817 2817 2814 2811 2809 2807 2806 2804 2802 2800 2797 2794 2791 2789 2786 2784
2862 2862 2860 2858 2854 2854 2852 2853 2850 2847 2845 2842 2840 2835 2829 2828 2827 2825 2823 2822 2820 2819 2817 2815 2813 2812 2811 2809 2808 2806 2803 2805 2804 2806 2807 2807 2806 2806 2806 2805 2803 2801 2800 2799 2797 2796 2793 2791 2789 2786 2784 2782 2780 2778
2852 2851 2850 2846 2843 2844 2842 2838 2835 2831 2830 2827 2822 2820 2817 2814 2807 2802 2806 2806 2802 2799 2798 2797 2796 2795 2795 2792 2791 2791 2791 2792 2793 2793 2794 2795 2795 2796 2796 2796 2794 2793 2791 2790 2789 2788 2786 2784 2782 2781 2778 2776 2775 2773
2842 2841 2839 2836 2834 2832 2832 2829 2822 2818 2816 2813 2809 2808 2806 2803 2797 2793 2794 2791 2787 2784 2783 2782 2780 2779 2779 2778 2778 2780 2780 2781 2782 2782 2783 2785 2786 2787 2787 2787 2786 2785 2784 2783 2782 2780 2779 2777 2776 2774 2772 2771 2770 2769